Location: Howard City Library
(37.4684°N, 96.2639°W)
Time: 17:33:57
(UTC+00:00)

Cosmos 1484 Rocket - Pass Details

Date: 18 February 2020
Orbit: 507 x 559 km, 97.4° (Epoch: 31 March)

Event Time Altitude Azimuth Distance (km) Brightness Sun altitude
Rises 11:24:18 0° 9° (N) 2,719 6.5 -21.9°
Reaches altitude 10° 11:26:26 10° 8° (N) 1,829 5.6 -21.5°
Maximum altitude 11:30:23 76° 284° (WNW) 574 2.6 -20.7°
Enters shadow 11:32:27 27° 202° (SSW) 1,080 4.1 -20.3°
